| time (UTC) | temp F | wind direction | speed knots | gust knots | rain 1hr in | rain 24hr in | rain mn in | humidity % | barometer mb |
| 20260906225837 | 78 | 0 | 2.6 | 9.6 | 0.00 | 0.18 | 0.00 | 41 | 1003.6 |
| 20260906224708 | 77 | 0 | 1.7 | 9.6 | 0.00 | 0.18 | 0.00 | 41 | 1003.7 |
| 20260906224149 | 77 | 0 | 2.6 | 9.6 | 0.00 | 0.18 | 0.00 | 41 | 1003.8 |
| 20260906223647 | 77 | 0 | 3.5 | 9.6 | 0.00 | 0.18 | 0.00 | 41 | 1003.8 |
| 20260906222531 | 77 | 0 | 3.5 | 9.6 | 0.00 | 0.18 | 0.00 | 42 | 1003.9 |
| 20260906222018 | 77 | 0 | 2.6 | 7.8 | 0.00 | 0.18 | 0.00 | 43 | 1004.0 |
| 20260906221523 | 76 | 0 | 1.7 | 7.8 | 0.00 | 0.18 | 0.00 | 45 | 1004.0 |
| 20260906221005 | 76 | 0 | 1.7 | 8.7 | 0.00 | 0.18 | 0.00 | 45 | 1004.1 |
| 20260906220456 | 76 | 0 | 1.7 | 8.7 | 0.00 | 0.18 | 0.00 | 44 | 1004.3 |
| 20260906215948 | 76 | 0 | 2.6 | 8.7 | 0.00 | 0.18 | 0.00 | 44 | 1004.2 |
| 20260906215455 | 76 | 0 | 2.6 | 8.7 | 0.00 | 0.18 | 0.00 | 45 | 1004.6 |
| 20260906214958 | 75 | 0 | 2.6 | 8.7 | 0.00 | 0.18 | 0.00 | 45 | 1004.8 |
| 20260906214439 | 75 | 0 | 2.6 | 8.7 | 0.00 | 0.18 | 0.00 | 46 | 1004.8 |
| 20260906213259 | 75 | 0 | 2.6 | 7.8 | 0.00 | 0.18 | 0.00 | 45 | 1005.0 |
| 20260906212757 | 76 | 0 | 1.7 | 9.6 | 0.00 | 0.18 | 0.00 | 44 | 1005.0 |
| 20260906212247 | 77 | 0 | 2.6 | 9.6 | 0.00 | 0.18 | 0.00 | 43 | 1004.9 |
| 20260906211755 | 77 | 0 | 2.6 | 9.6 | 0.00 | 0.18 | 0.00 | 41 | 1005.0 |
| 20260906211301 | 77 | 0 | 2.6 | 9.6 | 0.00 | 0.18 | 0.00 | 43 | 1004.9 |
| 20260906210130 | 77 | 0 | 3.5 | 12.2 | 0.00 | 0.18 | 0.00 | 43 | 1005.0 |
| 20260906205636 | 77 | 0 | 2.6 | 12.2 | 0.00 | 0.18 | 0.00 | 44 | 1005.1 |
| 20260906203904 | 76 | 0 | 2.6 | 9.6 | 0.00 | 0.18 | 0.00 | 44 | 1005.5 |
| 20260906203354 | 77 | 0 | 2.6 | 9.6 | 0.00 | 0.18 | 0.00 | 43 | 1005.4 |
| 20260906202859 | 77 | 0 | 2.6 | 9.6 | 0.00 | 0.18 | 0.00 | 43 | 1005.3 |
| 20260906202408 | 77 | 0 | 2.6 | 9.6 | 0.00 | 0.18 | 0.00 | 42 | 1005.4 |
| 20260906201852 | 78 | 0 | 1.7 | 7.8 | 0.00 | 0.18 | 0.00 | 40 | 1005.4 |
| 20260906200736 | 77 | 0 | 1.7 | 8.7 | 0.00 | 0.18 | 0.00 | 41 | 1005.5 |
| 20260906200232 | 77 | 0 | 2.6 | 13.0 | 0.00 | 0.18 | 0.00 | 41 | 1005.6 |
| 20260906195737 | 77 | 0 | 2.6 | 13.0 | 0.00 | 0.18 | 0.00 | 40 | 1005.8 |
| 20260906195233 | 77 | 0 | 3.5 | 13.0 | 0.00 | 0.18 | 0.00 | 40 | 1005.6 |
| 20260906194714 | 77 | 0 | 3.5 | 13.0 | 0.00 | 0.18 | 0.00 | 39 | 1005.7 |
| 20260906194206 | 77 | 0 | 2.6 | 13.0 | 0.00 | 0.18 | 0.00 | 39 | 1005.7 |
| 20260906193650 | 77 | 0 | 2.6 | 13.0 | 0.00 | 0.18 | 0.00 | 37 | 1005.8 |
| 20260906193150 | 77 | 0 | 3.5 | 13.0 | 0.00 | 0.18 | 0.00 | 39 | 1005.8 |
| 20260906192641 | 78 | 0 | 3.5 | 13.0 | 0.00 | 0.18 | 0.00 | 39 | 1005.8 |
| 20260906192147 | 78 | 0 | 2.6 | 9.6 | 0.00 | 0.18 | 0.00 | 40 | 1006.0 |
| 20260906191638 | 78 | 0 | 1.7 | 9.6 | 0.00 | 0.18 | 0.00 | 38 | 1006.1 |
| 20260906191143 | 78 | 0 | 1.7 | 7.0 | 0.00 | 0.18 | 0.00 | 35 | 1006.1 |
| 20260906190649 | 77 | 0 | 0.9 | 3.5 | 0.00 | 0.18 | 0.00 | 34 | 1006.2 |
| 20260906190157 | 77 | 0 | 1.7 | 6.1 | 0.00 | 0.18 | 0.00 | 34 | 1006.2 |
| 20260906185701 | 77 | 0 | 1.7 | 6.1 | 0.00 | 0.18 | 0.00 | 34 | 1006.3 |
| 20260906184539 | 76 | 0 | 1.7 | 7.8 | 0.00 | 0.18 | 0.00 | 36 | 1006.6 |
| 20260906184045 | 76 | 0 | 1.7 | 7.8 | 0.00 | 0.18 | 0.00 | 35 | 1006.6 |
| 20260906183553 | 76 | 0 | 1.7 | 7.8 | 0.00 | 0.18 | 0.00 | 34 | 1006.7 |
| 20260906183100 | 76 | 0 | 1.7 | 6.1 | 0.00 | 0.18 | 0.00 | 34 | 1006.8 |
| 20260906182606 | 76 | 0 | 0.9 | 3.5 | 0.00 | 0.18 | 0.00 | 35 | 1007.0 |
| 20260906182054 | 76 | 0 | 0.9 | 7.8 | 0.00 | 0.18 | 0.00 | 35 | 1007.1 |
| 20260906181548 | 76 | 0 | 1.7 | 7.8 | 0.00 | 0.18 | 0.00 | 35 | 1007.3 |
| 20260906181042 | 75 | 0 | 1.7 | 7.8 | 0.00 | 0.18 | 0.00 | 36 | 1007.3 |
| 20260906180540 | 75 | 0 | 0.9 | 7.8 | 0.00 | 0.18 | 0.00 | 36 | 1007.3 |
| 20260906180023 | 75 | 0 | 1.7 | 7.8 | 0.00 | 0.18 | 0.00 | 37 | 1007.4 |
| 20260906175512 | 75 | 0 | 1.7 | 7.8 | 0.00 | 0.18 | 0.00 | 37 | 1007.5 |
| 20260906175007 | 74 | 0 | 1.7 | 7.0 | 0.00 | 0.18 | 0.00 | 39 | 1007.6 |
| 20260906174449 | 74 | 0 | 1.7 | 8.7 | 0.00 | 0.18 | 0.00 | 39 | 1007.8 |
| 20260906173939 | 74 | 0 | 1.7 | 8.7 | 0.00 | 0.18 | 0.00 | 39 | 1007.9 |
| 20260906172833 | 73 | 0 | 1.7 | 7.8 | 0.00 | 0.18 | 0.00 | 40 | 1007.9 |
| 20260906172315 | 73 | 0 | 1.7 | 7.8 | 0.00 | 0.18 | 0.00 | 41 | 1008.0 |
| 20260906171215 | 73 | 0 | 2.6 | 8.7 | 0.00 | 0.18 | 0.00 | 41 | 1008.1 |
| 20260906170704 | 73 | 0 | 1.7 | 8.7 | 0.00 | 0.18 | 0.00 | 42 | 1008.1 |
| 20260906170156 | 73 | 0 | 1.7 | 8.7 | 0.00 | 0.18 | 0.00 | 41 | 1008.2 |
| 20260906165647 | 73 | 0 | 1.7 | 7.0 | 0.00 | 0.18 | 0.00 | 43 | 1008.2 |
| 20260906165129 | 73 | 0 | 1.7 | 7.0 | 0.00 | 0.18 | 0.00 | 42 | 1008.2 |
| 20260906164611 | 73 | 0 | 1.7 | 7.0 | 0.00 | 0.18 | 0.00 | 42 | 1008.3 |
| 20260906164117 | 73 | 0 | 1.7 | 7.0 | 0.00 | 0.18 | 0.00 | 41 | 1008.2 |
| 20260906163604 | 73 | 0 | 0.9 | 4.3 | 0.00 | 0.18 | 0.00 | 41 | 1008.2 |
| 20260906163105 | 73 | 0 | 0.0 | 3.5 | 0.00 | 0.18 | 0.00 | 43 | 1008.2 |
| 20260906162600 | 73 | 0 | 0.9 | 3.5 | 0.00 | 0.18 | 0.00 | 43 | 1008.3 |
| 20260906162101 | 72 | 0 | 0.9 | 3.5 | 0.00 | 0.18 | 0.00 | 43 | 1008.1 |
| 20260906161600 | 72 | 0 | 0.9 | 3.5 | 0.00 | 0.18 | 0.00 | 42 | 1008.2 |
| 20260906160444 | 73 | 0 | 0.0 | 3.5 | 0.00 | 0.18 | 0.00 | 43 | 1008.1 |
| 20260906155337 | 72 | 0 | 0.0 | 3.5 | 0.00 | 0.18 | 0.00 | 44 | 1008.2 |
| 20260906154839 | 72 | 0 | 0.0 | 0.9 | 0.00 | 0.18 | 0.00 | 47 | 1008.2 |
| 20260906154324 | 72 | 0 | 0.0 | 2.6 | 0.00 | 0.18 | 0.00 | 49 | 1008.2 |
| 20260906153817 | 71 | 0 | 0.0 | 2.6 | 0.00 | 0.18 | 0.00 | 49 | 1008.3 |
| 20260906153326 | 71 | 0 | 0.9 | 2.6 | 0.00 | 0.18 | 0.00 | 50 | 1008.3 |
| 20260906152818 | 71 | 0 | 0.0 | 2.6 | 0.00 | 0.18 | 0.00 | 49 | 1008.2 |
| 20260906152259 | 70 | 0 | 0.0 | 1.7 | 0.00 | 0.18 | 0.00 | 51 | 1008.3 |
| 20260906151744 | 70 | 0 | 0.0 | 0.0 | 0.00 | 0.18 | 0.00 | 53 | 1008.2 |
| 20260906151243 | 70 | 0 | 0.0 | 0.0 | 0.00 | 0.18 | 0.00 | 52 | 1008.2 |
| 20260906150746 | 70 | 0 | 0.0 | 0.0 | 0.00 | 0.18 | 0.00 | 52 | 1008.3 |
| 20260906150241 | 69 | 0 | 0.0 | 0.0 | 0.00 | 0.18 | 0.00 | 54 | 1008.3 |
| 20260906145750 | 68 | 0 | 0.0 | 0.0 | 0.00 | 0.18 | 0.00 | 56 | 1008.3 |
| 20260906145259 | 67 | 0 | 0.0 | 0.0 | 0.00 | 0.18 | 0.00 | 58 | 1008.2 |
| 20260906144802 | 67 | 0 | 0.0 | 0.0 | 0.00 | 0.18 | 0.00 | 58 | 1008.2 |
| 20260906143639 | 65 | 0 | 0.0 | 0.0 | 0.00 | 0.18 | 0.00 | 58 | 1008.3 |
| 20260906143123 | 64 | 0 | 0.0 | 0.0 | 0.00 | 0.18 | 0.00 | 61 | 1008.3 |
| 20260906142619 | 63 | 0 | 0.0 | 0.0 | 0.00 | 0.18 | 0.00 | 63 | 1008.2 |
| 20260906140220 | 58 | 0 | 0.0 | 0.0 | 0.00 | 0.18 | 0.00 | 69 | 1008.3 |
| 20260906135711 | 58 | 0 | 0.0 | 0.0 | 0.00 | 0.18 | 0.00 | 68 | 1008.2 |
| 20260906135212 | 58 | 0 | 0.0 | 0.0 | 0.00 | 0.18 | 0.00 | 65 | 1008.2 |
| 20260906134721 | 58 | 0 | 0.0 | 0.0 | 0.00 | 0.18 | 0.00 | 65 | 1008.3 |
| 20260906134214 | 58 | 0 | 0.0 | 0.0 | 0.00 | 0.18 | 0.00 | 66 | 1008.2 |
| 20260906133712 | 58 | 0 | 0.0 | 0.0 | 0.00 | 0.18 | 0.00 | 66 | 1008.2 |
| 20260906133211 | 57 | 0 | 0.0 | 0.0 | 0.00 | 0.18 | 0.00 | 66 | 1008.1 |
| 20260906132708 | 57 | 0 | 0.0 | 0.0 | 0.00 | 0.18 | 0.00 | 66 | 1008.1 |
| 20260906132156 | 56 | 0 | 0.0 | 0.0 | 0.00 | 0.18 | 0.00 | 66 | 1008.1 |
| 20260906131648 | 56 | 0 | 0.0 | 0.0 | 0.00 | 0.18 | 0.00 | 68 | 1008.0 |
| 20260906131131 | 55 | 0 | 0.0 | 0.0 | 0.00 | 0.18 | 0.00 | 70 | 1007.9 |
| 20260906130621 | 54 | 0 | 0.0 | 0.0 | 0.00 | 0.18 | 0.00 | 72 | 1007.9 |
| 20260906130131 | 54 | 0 | 0.0 | 0.0 | 0.00 | 0.18 | 0.00 | 73 | 1007.8 |
| 20260906125618 | 53 | 0 | 0.0 | 0.0 | 0.00 | 0.18 | 0.00 | 74 | 1007.8 |
| 20260906125122 | 53 | 0 | 0.0 | 0.0 | 0.00 | 0.18 | 0.00 | 74 | 1007.8 |
| 20260906124614 | 54 | 0 | 0.0 | 0.0 | 0.00 | 0.18 | 0.00 | 74 | 1007.7 |
| 20260906124101 | 54 | 0 | 0.0 | 0.0 | 0.00 | 0.18 | 0.00 | 73 | 1007.8 |
| 20260906122309 | 55 | 0 | 0.0 | 0.0 | 0.00 | 0.18 | 0.00 | 70 | 1007.9 |
| 20260906121156 | 55 | 0 | 0.0 | 0.0 | 0.00 | 0.18 | 0.00 | 70 | 1008.0 |
| 20260906120655 | 55 | 0 | 0.0 | 0.0 | 0.00 | 0.18 | 0.00 | 69 | 1008.0 |
| 20260906120202 | 55 | 0 | 0.0 | 0.0 | 0.00 | 0.18 | 0.00 | 69 | 1008.0 |
| 20260906115649 | 55 | 0 | 0.0 | 0.0 | 0.00 | 0.18 | 0.00 | 69 | 1008.1 |
| 20260906115151 | 55 | 0 | 0.0 | 0.0 | 0.00 | 0.18 | 0.00 | 70 | 1008.0 |
| 20260906114638 | 55 | 0 | 0.0 | 0.0 | 0.00 | 0.18 | 0.00 | 70 | 1008.0 |
| 20260906114133 | 55 | 0 | 0.0 | 0.0 | 0.00 | 0.18 | 0.00 | 70 | 1008.0 |
| 20260906113624 | 55 | 0 | 0.0 | 0.0 | 0.00 | 0.18 | 0.00 | 70 | 1008.0 |
| 20260906113115 | 55 | 0 | 0.0 | 0.0 | 0.00 | 0.18 | 0.00 | 70 | 1008.0 |
| 20260906112624 | 55 | 0 | 0.0 | 0.0 | 0.00 | 0.18 | 0.00 | 72 | 1008.0 |
| 20260906112111 | 55 | 0 | 0.0 | 0.0 | 0.00 | 0.18 | 0.00 | 72 | 1007.9 |
| 20260906111559 | 55 | 0 | 0.0 | 0.0 | 0.00 | 0.18 | 0.00 | 73 | 1007.9 |
| 20260906111053 | 55 | 0 | 0.0 | 0.0 | 0.00 | 0.18 | 0.00 | 72 | 1007.9 |
| 20260906110554 | 55 | 0 | 0.0 | 0.0 | 0.00 | 0.18 | 0.00 | 72 | 1007.8 |
| 20260906105428 | 55 | 0 | 0.0 | 0.0 | 0.00 | 0.18 | 0.00 | 73 | 1007.7 |
| 20260906104937 | 55 | 0 | 0.0 | 0.0 | 0.00 | 0.18 | 0.00 | 72 | 1007.7 |
| 20260906104423 | 55 | 0 | 0.0 | 0.0 | 0.00 | 0.18 | 0.00 | 74 | 1007.7 |
| 20260906103910 | 54 | 0 | 0.0 | 0.0 | 0.00 | 0.18 | 0.00 | 74 | 1007.8 |
| 20260906102744 | 54 | 0 | 0.0 | 0.0 | 0.00 | 0.18 | 0.00 | 76 | 1007.8 |
| 20260906102225 | 54 | 0 | 0.0 | 0.0 | 0.00 | 0.18 | 0.00 | 77 | 1007.7 |
| 20260906101722 | 54 | 0 | 0.0 | 0.0 | 0.00 | 0.18 | 0.00 | 76 | 1007.6 |
| 20260906100547 | 55 | 0 | 0.0 | 0.0 | 0.00 | 0.18 | 0.00 | 74 | 1007.6 |
| 20260906100046 | 55 | 0 | 0.0 | 0.0 | 0.00 | 0.18 | 0.00 | 72 | 1007.6 |
| 20260906095542 | 55 | 0 | 0.0 | 0.0 | 0.00 | 0.18 | 0.00 | 72 | 1007.6 |
| 20260906095049 | 56 | 0 | 0.0 | 0.0 | 0.00 | 0.18 | 0.00 | 72 | 1007.6 |
| 20260906094557 | 55 | 0 | 0.0 | 0.0 | 0.00 | 0.18 | 0.00 | 70 | 1007.6 |
| 20260906094057 | 55 | 0 | 0.0 | 0.0 | 0.00 | 0.18 | 0.00 | 70 | 1007.6 |
| 20260906092931 | 56 | 0 | 0.0 | 0.0 | 0.00 | 0.18 | 0.00 | 73 | 1007.6 |
| 20260906092421 | 56 | 0 | 0.0 | 0.0 | 0.00 | 0.18 | 0.00 | 73 | 1007.5 |
| 20260906091930 | 56 | 0 | 0.0 | 0.0 | 0.00 | 0.18 | 0.00 | 73 | 1007.4 |
| 20260906091411 | 57 | 0 | 0.0 | 0.0 | 0.00 | 0.18 | 0.00 | 73 | 1007.4 |
| 20260906090915 | 57 | 0 | 0.0 | 0.0 | 0.00 | 0.18 | 0.00 | 71 | 1007.4 |
| 20260906090423 | 57 | 0 | 0.0 | 0.0 | 0.00 | 0.18 | 0.00 | 71 | 1007.4 |
| 20260906085926 | 57 | 0 | 0.0 | 0.0 | 0.00 | 0.18 | 0.00 | 72 | 1007.3 |
| 20260906085436 | 56 | 0 | 0.0 | 0.0 | 0.00 | 0.18 | 0.00 | 73 | 1007.3 |
| 20260906084929 | 56 | 0 | 0.0 | 0.0 | 0.00 | 0.18 | 0.00 | 73 | 1007.4 |
| 20260906084430 | 55 | 0 | 0.0 | 0.0 | 0.00 | 0.18 | 0.00 | 74 | 1007.3 |
| 20260906083934 | 55 | 0 | 0.0 | 0.0 | 0.00 | 0.18 | 0.00 | 75 | 1007.2 |
| 20260906083434 | 55 | 0 | 0.0 | 0.0 | 0.00 | 0.18 | 0.00 | 77 | 1007.3 |
| 20260906082922 | 54 | 0 | 0.0 | 0.0 | 0.00 | 0.18 | 0.00 | 79 | 1007.2 |
| 20260906082423 | 54 | 0 | 0.0 | 0.0 | 0.00 | 0.18 | 0.00 | 80 | 1007.2 |
| 20260906081916 | 54 | 0 | 0.0 | 0.0 | 0.00 | 0.18 | 0.00 | 81 | 1007.2 |
| 20260906081406 | 53 | 0 | 0.0 | 0.0 | 0.00 | 0.18 | 0.00 | 83 | 1007.2 |
| 20260906080856 | 53 | 0 | 0.0 | 0.0 | 0.00 | 0.18 | 0.00 | 84 | 1007.2 |
| 20260906075709 | 52 | 0 | 0.0 | 0.0 | 0.00 | 0.18 | 0.00 | 87 | 1007.2 |
| 20260906075158 | 52 | 0 | 0.0 | 0.0 | 0.00 | 0.18 | 0.00 | 88 | 1007.2 |
| 20260906074650 | 52 | 0 | 0.0 | 0.0 | 0.00 | 0.18 | 0.00 | 89 | 1007.3 |
| 20260906074146 | 52 | 0 | 0.0 | 0.0 | 0.00 | 0.18 | 0.00 | 89 | 1007.3 |
| 20260906073627 | 52 | 0 | 0.0 | 0.0 | 0.00 | 0.18 | 0.00 | 90 | 1007.3 |
| 20260906073126 | 52 | 0 | 0.0 | 0.0 | 0.00 | 0.18 | 0.00 | 90 | 1007.3 |
| 20260906072619 | 52 | 0 | 0.0 | 0.0 | 0.00 | 0.18 | 0.00 | 90 | 1007.3 |
| 20260906071446 | 52 | 0 | 0.0 | 0.0 | 0.00 | 0.18 | 0.00 | 90 | 1007.4 |
| 20260906070941 | 52 | 0 | 0.0 | 0.0 | 0.00 | 0.18 | 0.00 | 91 | 1007.6 |
| 20260906070427 | 52 | 0 | 0.0 | 0.0 | 0.00 | 0.18 | 0.00 | 91 | 1007.3 |
| 20260906065924 | 52 | 0 | 0.0 | 0.0 | 0.00 | 0.18 | 0.00 | 91 | 1007.3 |
| 20260906065414 | 52 | 0 | 0.0 | 0.0 | 0.00 | 0.18 | 0.00 | 92 | 1007.3 |
| 20260906064921 | 51 | 0 | 0.0 | 0.0 | 0.00 | 0.18 | 0.00 | 92 | 1007.2 |
| 20260906064420 | 51 | 0 | 0.0 | 0.0 | 0.00 | 0.18 | 0.00 | 92 | 1007.4 |
| 20260906063920 | 51 | 0 | 0.0 | 0.0 | 0.00 | 0.18 | 0.00 | 92 | 1007.4 |
| 20260906063415 | 52 | 0 | 0.0 | 0.0 | 0.00 | 0.18 | 0.00 | 92 | 1007.2 |
| 20260906062858 | 51 | 0 | 0.0 | 0.0 | 0.00 | 0.18 | 0.00 | 92 | 1007.3 |
| 20260906062347 | 52 | 0 | 0.0 | 0.0 | 0.00 | 0.18 | 0.00 | 92 | 1007.4 |
| 20260906061854 | 52 | 0 | 0.0 | 0.0 | 0.00 | 0.18 | 0.00 | 92 | 1007.5 |
| 20260906061358 | 52 | 0 | 0.0 | 0.0 | 0.00 | 0.18 | 0.00 | 92 | 1007.5 |
| 20260906060838 | 52 | 0 | 0.0 | 0.0 | 0.00 | 0.18 | 0.00 | 92 | 1007.4 |
| 20260906060345 | 52 | 0 | 0.0 | 0.0 | 0.00 | 0.18 | 0.00 | 92 | 1007.4 |
| 20260906055837 | 52 | 0 | 0.0 | 0.0 | 0.00 | 0.18 | 0.18 | 92 | 1007.4 |
| 20260906055333 | 52 | 0 | 0.0 | 0.0 | 0.00 | 0.18 | 0.18 | 92 | 1007.5 |
| 20260906054827 | 52 | 0 | 0.0 | 0.0 | 0.00 | 0.18 | 0.18 | 92 | 1007.5 |
| 20260906054314 | 52 | 0 | 0.0 | 0.0 | 0.00 | 0.18 | 0.18 | 91 | 1007.6 |
| 20260906053142 | 53 | 0 | 0.0 | 0.0 | 0.00 | 0.18 | 0.18 | 91 | 1007.7 |
| 20260906052023 | 53 | 0 | 0.0 | 0.0 | 0.00 | 0.18 | 0.18 | 91 | 1007.8 |
| 20260906050837 | 53 | 0 | 0.0 | 0.0 | 0.00 | 0.18 | 0.18 | 90 | 1008.0 |
| 20260906050324 | 54 | 0 | 0.0 | 0.0 | 0.00 | 0.18 | 0.18 | 90 | 1007.9 |
| 20260906045819 | 54 | 0 | 0.0 | 0.0 | 0.00 | 0.18 | 0.18 | 89 | 1008.1 |
| 20260906044637 | 54 | 0 | 0.0 | 0.0 | 0.00 | 0.18 | 0.18 | 87 | 1008.3 |
| 20260906044143 | 54 | 0 | 0.0 | 0.0 | 0.00 | 0.18 | 0.18 | 86 | 1008.3 |
| 20260906043014 | 56 | 0 | 0.0 | 1.7 | 0.05 | 0.18 | 0.18 | 84 | 1008.3 |
| 20260906041839 | 58 | 0 | 0.9 | 7.0 | 0.20 | 0.16 | 0.18 | 76 | 1008.3 |
| 20260906041344 | 60 | 0 | 1.7 | 7.0 | 0.67 | 0.13 | 0.15 | 72 | 1008.3 |
| 20260906040836 | 62 | 0 | 2.6 | 7.0 | 1.19 | 0.04 | 0.06 | 65 | 1008.6 |
| 20260906040331 | 65 | 0 | 0.9 | 7.0 | 0.00 | 0.00 | 0.01 | 58 | 1008.0 |
| 20260906035830 | 65 | 0 | 0.0 | 3.5 | 0.00 | 0.00 | 0.00 | 46 | 1007.7 |
| 20260906035324 | 65 | 0 | 0.0 | 0.0 | 0.00 | 0.00 | 0.00 | 48 | 1007.7 |
| 20260906034219 | 65 | 0 | 0.0 | 0.0 | 0.00 | 0.00 | 0.00 | 46 | 1007.5 |
| 20260906033718 | 65 | 0 | 0.0 | 0.0 | 0.00 | 0.00 | 0.00 | 45 | 1007.4 |
| 20260906033218 | 65 | 0 | 0.0 | 0.0 | 0.00 | 0.00 | 0.00 | 45 | 1007.3 |
| 20260906032711 | 65 | 0 | 0.0 | 0.0 | 0.00 | 0.00 | 0.00 | 45 | 1007.3 |
| 20260906031527 | 65 | 0 | 0.0 | 0.0 | 0.00 | 0.00 | 0.00 | 45 | 1007.1 |
| 20260906030404 | 65 | 0 | 0.0 | 0.0 | 0.00 | 0.00 | 0.00 | 45 | 1006.9 |
| 20260906025909 | 65 | 0 | 0.0 | 0.0 | 0.00 | 0.00 | 0.00 | 45 | 1006.9 |
| 20260906024745 | 65 | 0 | 0.0 | 0.0 | 0.00 | 0.00 | 0.00 | 45 | 1006.8 |
| 20260906024226 | 65 | 0 | 0.0 | 0.0 | 0.00 | 0.00 | 0.00 | 45 | 1006.7 |
| 20260906023039 | 64 | 0 | 0.0 | 0.0 | 0.00 | 0.00 | 0.00 | 47 | 1006.7 |
| 20260906021930 | 65 | 0 | 0.0 | 0.0 | 0.00 | 0.00 | 0.00 | 46 | 1006.6 |
| 20260906021421 | 65 | 0 | 0.0 | 0.0 | 0.00 | 0.00 | 0.00 | 46 | 1006.4 |
| 20260906020925 | 65 | 0 | 0.0 | 0.0 | 0.00 | 0.00 | 0.00 | 45 | 1006.2 |
| 20260906020432 | 66 | 0 | 0.0 | 0.0 | 0.00 | 0.00 | 0.00 | 44 | 1006.2 |
| 20260906015930 | 66 | 0 | 0.0 | 0.0 | 0.00 | 0.00 | 0.00 | 44 | 1006.2 |
| 20260906014800 | 67 | 0 | 0.0 | 0.0 | 0.00 | 0.00 | 0.00 | 42 | 1006.1 |
| 20260906014256 | 67 | 0 | 0.0 | 0.0 | 0.00 | 0.00 | 0.00 | 42 | 1006.2 |
| 20260906013750 | 68 | 0 | 0.0 | 0.0 | 0.00 | 0.00 | 0.00 | 41 | 1006.1 |
| 20260906013253 | 68 | 0 | 0.0 | 0.0 | 0.00 | 0.00 | 0.00 | 40 | 1006.0 |
| 20260906012757 | 69 | 0 | 0.0 | 0.0 | 0.00 | 0.00 | 0.00 | 39 | 1006.0 |
| 20260906011641 | 71 | 0 | 0.0 | 0.0 | 0.00 | 0.00 | 0.00 | 38 | 1006.0 |
| 20260906010503 | 72 | 0 | 0.0 | 2.6 | 0.00 | 0.00 | 0.00 | 36 | 1005.9 |
| 20260906010000 | 73 | 0 | 0.0 | 2.6 | 0.00 | 0.00 | 0.00 | 35 | 1005.9 |
| 20260906005508 | 73 | 0 | 0.0 | 6.1 | 0.00 | 0.00 | 0.00 | 35 | 1005.9 |
| 20260906004956 | 73 | 0 | 0.0 | 6.1 | 0.00 | 0.00 | 0.00 | 34 | 1005.9 |
| 20260906004458 | 74 | 0 | 0.9 | 6.1 | 0.00 | 0.00 | 0.00 | 34 | 1005.9 |
| 20260906003955 | 74 | 0 | 0.9 | 6.1 | 0.00 | 0.00 | 0.00 | 33 | 1005.8 |
| 20260906002813 | 75 | 0 | 0.0 | 0.9 | 0.00 | 0.00 | 0.00 | 32 | 1005.9 |
| 20260906002253 | 76 | 0 | 0.9 | 4.3 | 0.00 | 0.00 | 0.00 | 32 | 1005.8 |
| 20260906001737 | 76 | 0 | 0.9 | 4.3 | 0.00 | 0.00 | 0.00 | 32 | 1005.8 |
| 20260906001236 | 76 | 0 | 0.0 | 4.3 | 0.00 | 0.00 | 0.00 | 32 | 1005.8 |
| 20260906000741 | 76 | 0 | 0.0 | 4.3 | 0.00 | 0.00 | 0.00 | 31 | 1005.9 |
| 20260905235615 | 76 | 0 | 0.9 | 4.3 | 0.00 | 0.00 | 0.00 | 32 | 1005.8 |
| 20260905235103 | 76 | 0 | 0.9 | 4.3 | 0.00 | 0.00 | 0.00 | 32 | 1005.7 |
| 20260905234554 | 76 | 0 | 0.0 | 4.3 | 0.00 | 0.00 | 0.00 | 31 | 1005.7 |
| 20260905234102 | 76 | 0 | 0.9 | 6.1 | 0.00 | 0.00 | 0.00 | 30 | 1005.7 |
| 20260905233547 | 76 | 0 | 0.9 | 6.1 | 0.00 | 0.00 | 0.00 | 31 | 1005.6 |
| 20260905231804 | 78 | 0 | 1.7 | 7.0 | 0.00 | 0.00 | 0.00 | 29 | 1005.5 |